sat.trackr.live / text

‹ back to catalog

ZHUHAI-1 03D

NORAD 44538 · 2019-060E

PAYLOAD ACTIVE UNKNOWN

§ Identity

Operator
Country
PRC
Launch date
2019-09-19
Launch site
JSC
Launch vehicle
Mass (kg)
RCS (m²)

External: N2YO · Heavens-Above · Gunter

§ Orbital elements

Epoch: 2026-09-20T03:58:06.849984Z

Period
92.58 min
Inclination
97.5474°
Eccentricity
0.0005748
Mean motion
15.55353961 rev/d
Perigee alt
397.2 km
Apogee alt
405.0 km
Semi-major
6,779.3 km
B*
4.5031e-4
RAAN
57.8004°
Arg perigee
313.1360°
Mean anomaly
46.9412°
Rev number
39,081

§ Raw data

ZHUHAI-1 03D1 44538U 19060E   26263.16535706  .00030569  00000+0  45031-3 0  99902 44538  97.5474  57.8004 0005748 313.1360  46.9412 15.55353961390817

JSON: /api/v1/satellites/44538 · /tle

For live sub-satellite position, see the globe view (requires WebGL).

§ Visibility from observer

Set your observer location to see the next 7 days of passes ≥ 10°. The values pass through the URL so the page stays shareable.

No JS? Fill the form by hand. The geolocation button needs JavaScript.

§ Radio — SatNOGS DB

ModeDescriptionDownlinkUplink
FM S-band telemetry 2.213 GHz

1 transmitter · refreshed weekly from db.satnogs.org